Location: Newark
(13.8625°N, 100.5144°E)
Time: 13:57:29
(UTC+00:00)

LightSail 2 - Pass Details

Date: 11 May 2021
Orbit: 685 x 700 km, 24.0° (Epoch: 11 June)

Event Time Altitude Azimuth Distance (km) Brightness Sun altitude
Exits shadow 21:35:47 10° 308° (NW) 2,166 7.4 -18.1°
Reaches altitude 10° 21:35:54 10° 308° (NW) 2,130 7.3 -18.0°
Maximum altitude 21:40:15 29° 8° (N) 1,248 6.7 -17.1°
Drops below altitude 10° 21:44:35 10° 68° (ENE) 2,121 9.0 -16.1°
Sets 21:47:15 0° 80° (E) 3,035 10.0 -15.5°
